,,Stat6,,Stat2,,Stat8,,Stat9,,Stat10,,Wind1,,Wind1,
time,status,PA1M_AVG,status,PR1M_SUM,status,RH1M_AVG,status,SR1M_AVG,status,TA1M_AVG,status,W1dAve1m,status,W1sAve1m,
2004-06-03, 00:00:00,VALID,920.166,VALID,0,VALID,96.3813,VALID,0,VALID,19.0664,VALID,357,VALID,0.654344,
2004-06-03, 00:01:00,VALID,920.187,VALID,0,VALID,96.2745,VALID,0,VALID,19.1044,VALID,360,VALID,0.788872,
2004-06-03, 00:02:00,VALID,920.186,VALID,0,VALID,96.0392,VALID,0,VALID,19.1466,VALID,360,VALID,0.730196,
2004-06-03, 00:03:00,VALID,920.188,VALID,0,VALID,95.9108,VALID,0.0169808,VALID,19.1824,VALID,360,VALID,0.627841,
2004-06-03, 00:04:00,VALID,920.184,VALID,0,VALID,95.7582,VALID,0.0169808,VALID,19.1946,VALID,360,VALID,0.484012,
2004-06-03, 00:05:00,VALID,920.169,VALID,0,VALID,95.5674,VALID,-0.0849042,VALID,19.2345,VALID,360,VALID,0.473514,
2004-06-03, 00:06:00,VALID,920.147,VALID,0,VALID,95.3716,VALID,-0.0679233,VALID,19.2737,VALID,360,VALID,0.407366,
2004-06-03, 00:07:00,VALID,920.12,VALID,0,VALID,95.0639,VALID,-0.101885,VALID,19.2807,VALID,360,VALID,0.464571,
2004-06-03, 00:08:00,VALID,920.103,VALID,0,VALID,95.055,VALID,-0.0849042,VALID,19.2869,VALID,360,VALID,0.186592,
2004-06-03, 00:09:00,VALID,920.07,VALID,0,VALID,95.0143,VALID,-0.118866,VALID,19.3068,VALID,360,VALID,0.446039,
2004-06-03, 00:10:00,VALID,920.042,VALID,0,VALID,94.9672,VALID,-0.0849042,VALID,19.3286,VALID,360,VALID,0.392113,
2004-06-03, 00:11:00,VALID,920.02,VALID,0,VALID,94.7307,VALID,-0.0679233,VALID,19.3545,VALID,360,VALID,0.174679,
2004-06-03, 00:12:00,VALID,920.012,VALID,0,VALID,94.5273,VALID,-0.101885,VALID,19.3577,VALID,360,VALID,0.400521,
2004-06-03, 00:13:00,VALID,919.996,VALID,0,VALID,94.4332,VALID,-0.0679233,VALID,19.3411,VALID,360,VALID,0.183685,
2004-06-03, 00:14:00,VALID,919.972,VALID,0,VALID,94.3645,VALID,-0.101885,VALID,19.3478,VALID,360,VALID,0.234766,
2004-06-03, 00:15:00,VALID,919.969,VALID,0,VALID,94.2793,VALID,-0.101885,VALID,19.3485,VALID,360,VALID,0.0853924,
2004-06-03, 00:16:00,VALID,919.957,VALID,0,VALID,94.3416,VALID,-0.101885,VALID,19.3381,VALID,360,VALID,0.00555556,
2004-06-03, 00:17:00,VALID,919.967,VALID,0,VALID,94.6252,VALID,-0.0849042,VALID,19.3547,VALID,360,VALID,0.149581,
2004-06-03, 00:18:00,VALID,919.959,VALID,0,VALID,94.9138,VALID,-0.0679233,VALID,19.3704,VALID,357,VALID,0.334223,
2004-06-03, 00:19:00,VALID,919.954,VALID,0,VALID,95.1275,VALID,-0.101885,VALID,19.3964,VALID,255,VALID,0.497337,
2004-06-03, 00:20:00,VALID,919.971,VALID,0,VALID,95.2152,VALID,-0.0169808,VALID,19.4176,VALID,254,VALID,0.226935,
2004-06-03, 00:21:00,VALID,919.969,VALID,0,VALID,95.1618,VALID,0,VALID,19.4402,VALID,254,VALID,0.235518,
2004-06-03, 00:22:00,VALID,919.962,VALID,0,VALID,95.0346,VALID,0,VALID,19.4598,VALID,254,VALID,0.0850694,
2004-06-03, 00:23:00,VALID,919.949,VALID,0,VALID,95.0245,VALID,0,VALID,19.473,VALID,254,VALID,0.108232,
2004-06-03, 00:24:00,VALID,919.942,VALID,0,VALID,95.158,VALID,-0.0169808,VALID,19.4859,VALID,254,VALID,0.119318,
2004-06-03, 00:25:00,VALID,919.935,VALID,0,VALID,95.1923,VALID,0,VALID,19.4985,VALID,254,VALID,0,
2004-06-03, 00:26:00,VALID,919.908,VALID,0,VALID,95.1415,VALID,0,VALID,19.4951,VALID,254,VALID,0,
2004-06-03, 00:27:00,VALID,919.87,VALID,0,VALID,95.1287,VALID,0.0169808,VALID,19.505,VALID,254,VALID,0,
2004-06-03, 00:28:00,VALID,919.848,VALID,0,VALID,95.205,VALID,0.0169808,VALID,19.5015,VALID,254,VALID,0,
2004-06-03, 00:29:00,VALID,919.827,VALID,0,VALID,95.1745,VALID,0.0169808,VALID,19.5048,VALID,254,VALID,0,
2004-06-03, 00:30:00,VALID,919.797,VALID,0,VALID,94.657,VALID,0,VALID,19.4757,VALID,254,VALID,0,
2004-06-03, 00:31:00,VALID,919.777,VALID,0,VALID,94.6481,VALID,0.0169808,VALID,19.3977,VALID,254,VALID,0,
2004-06-03, 00:32:00,VALID,919.763,VALID,0,VALID,95.1783,VALID,0,VALID,19.3853,VALID,254,VALID,0,
2004-06-03, 00:33:00,VALID,919.743,VALID,0,VALID,95.4326,VALID,0,VALID,19.3788,VALID,254,VALID,0.0161577,
2004-06-03, 00:34:00,VALID,919.714,VALID,0,VALID,95.3843,VALID,0,VALID,19.3726,VALID,326,VALID,0.391868,
2004-06-03, 00:35:00,VALID,919.692,VALID,0,VALID,95.0334,VALID,-0.0339617,VALID,19.3145,VALID,355,VALID,0.463663,
2004-06-03, 00:36:00,VALID,919.668,VALID,0,VALID,95.3322,VALID,-0.0509425,VALID,19.2599,VALID,355,VALID,0.714177,
2004-06-03, 00:37:00,VALID,919.644,VALID,0,VALID,95.8001,VALID,0,VALID,19.2013,VALID,355,VALID,0.673437,
2004-06-03, 00:38:00,VALID,919.629,VALID,0,VALID,96.2274,VALID,-0.0509425,VALID,19.1821,VALID,351,VALID,0.650298,
2004-06-03, 00:39:00,VALID,919.625,VALID,0,VALID,96.4042,VALID,-0.0169808,VALID,19.1816,VALID,352,VALID,0.542352,
2004-06-03, 00:40:00,VALID,919.617,VALID,0,VALID,96.3596,VALID,0,VALID,19.1556,VALID,326,VALID,0.68457,
2004-06-03, 00:41:00,VALID,919.642,VALID,0,VALID,96.5631,VALID,0,VALID,19.1692,VALID,288,VALID,0.281641,
2004-06-03, 00:42:00,VALID,919.637,VALID,0,VALID,96.5987,VALID,-0.0169808,VALID,19.1846,VALID,288,VALID,0.119141,
2004-06-03, 00:43:00,VALID,919.639,VALID,0,VALID,96.5809,VALID,0,VALID,19.1943,VALID,288,VALID,0.0314317,
2004-06-03, 00:44:00,VALID,919.627,VALID,0,VALID,96.4906,VALID,0,VALID,19.1943,VALID,288,VALID,0,
2004-06-03, 00:45:00,VALID,919.609,VALID,0,VALID,96.3393,VALID,0,VALID,19.1849,VALID,288,VALID,0.178354,
2004-06-03, 00:46:00,VALID,919.586,VALID,0,VALID,96.1384,VALID,0,VALID,19.1883,VALID,288,VALID,0,
2004-06-03, 00:47:00,VALID,919.573,VALID,0,VALID,96.1244,VALID,-0.0169808,VALID,19.2008,VALID,288,VALID,0.105291,
2004-06-03, 00:48:00,VALID,919.562,VALID,0,VALID,96.0087,VALID,-0.0339617,VALID,19.2169,VALID,288,VALID,0.0724927,
2004-06-03, 00:49:00,VALID,919.558,VALID,0,VALID,95.9082,VALID,-0.0339617,VALID,19.2333,VALID,288,VALID,0.0354288,
2004-06-03, 00:50:00,VALID,919.539,VALID,0,VALID,95.8434,VALID,-0.0169808,VALID,19.2402,VALID,288,VALID,0.163872,
2004-06-03, 00:51:00,VALID,919.543,VALID,0,VALID,95.8752,VALID,-0.0169808,VALID,19.243,VALID,288,VALID,0,
2004-06-03, 00:52:00,VALID,919.547,VALID,0,VALID,95.7518,VALID,0,VALID,19.2658,VALID,288,VALID,0.000372024,
2004-06-03, 00:53:00,VALID,919.56,VALID,0,VALID,95.5458,VALID,0,VALID,19.2755,VALID,288,VALID,0.0879836,
2004-06-03, 00:54:00,VALID,919.567,VALID,0,VALID,95.5407,VALID,0,VALID,19.2917,VALID,288,VALID,0.014881,
2004-06-03, 00:55:00,VALID,919.579,VALID,0,VALID,95.4899,VALID,0,VALID,19.2817,VALID,288,VALID,0,
2004-06-03, 00:56:00,VALID,919.581,VALID,0,VALID,95.4861,VALID,-0.0169808,VALID,19.2783,VALID,288,VALID,0,
2004-06-03, 00:57:00,VALID,919.561,VALID,0,VALID,95.4454,VALID,-0.0339617,VALID,19.275,VALID,288,VALID,0,
2004-06-03, 00:58:00,VALID,919.559,VALID,0,VALID,95.3386,VALID,0,VALID,19.2852,VALID,288,VALID,0,
2004-06-03, 00:59:00,VALID,919.539,VALID,0,VALID,95.1097,VALID,-0.0339617,VALID,19.3013,VALID,288,VALID,0.037157,
2004-06-03, 01:00:00,VALID,919.519,VALID,0,VALID,94.9367,VALID,-0.0169808,VALID,19.3297,VALID,288,VALID,0.0554142,
2004-06-03, 01:01:00,VALID,919.512,VALID,0,VALID,94.629,VALID,0,VALID,19.3694,VALID,288,VALID,0.233041,
2004-06-03, 01:02:00,VALID,919.481,VALID,0,VALID,94.7117,VALID,0,VALID,19.3783,VALID,288,VALID,0.171074,
2004-06-03, 01:03:00,VALID,919.463,VALID,0,VALID,94.8503,VALID,0,VALID,19.4009,VALID,288,VALID,0.216211,
2004-06-03, 01:04:00,VALID,919.443,VALID,0,VALID,95.0842,VALID,0.0169808,VALID,19.3975,VALID,269,VALID,0.157774,
2004-06-03, 01:05:00,VALID,919.406,VALID,0,VALID,95.3691,VALID,0,VALID,19.4203,VALID,268,VALID,0,
2004-06-03, 01:06:00,VALID,919.386,VALID,0,VALID,95.4034,VALID,0,VALID,19.4303,VALID,267,VALID,0.140799,
2004-06-03, 01:07:00,VALID,919.362,VALID,0,VALID,95.4123,VALID,0,VALID,19.4171,VALID,242,VALID,0.210007,
2004-06-03, 01:08:00,VALID,919.341,VALID,0,VALID,95.5242,VALID,-0.0169808,VALID,19.4168,VALID,239,VALID,0.0803571,
2004-06-03, 01:09:00,VALID,919.321,VALID,0,VALID,95.5178,VALID,0.0169808,VALID,19.4141,VALID,239,VALID,0.179497,
2004-06-03, 01:10:00,VALID,919.295,VALID,0,VALID,95.5,VALID,0,VALID,19.4005,VALID,239,VALID,0.0292969,
2004-06-03, 01:11:00,VALID,919.287,VALID,0,VALID,95.4581,VALID,0,VALID,19.4109,VALID,239,VALID,0,
2004-06-03, 01:12:00,VALID,919.273,VALID,0,VALID,95.425,VALID,-0.0169808,VALID,19.4042,VALID,239,VALID,0,
2004-06-03, 01:13:00,VALID,919.26,VALID,0,VALID,95.4009,VALID,0,VALID,19.4042,VALID,239,VALID,0,
2004-06-03, 01:14:00,VALID,919.251,VALID,0,VALID,95.4238,VALID,-0.0169808,VALID,19.3783,VALID,239,VALID,0,
2004-06-03, 01:15:00,VALID,919.229,VALID,0,VALID,95.35,VALID,0,VALID,19.3624,VALID,239,VALID,0,
2004-06-03, 01:16:00,VALID,919.205,VALID,0,VALID,95.2775,VALID,0,VALID,19.2974,VALID,239,VALID,0,
2004-06-03, 01:17:00,VALID,919.171,VALID,0,VALID,95.514,VALID,-0.0169808,VALID,19.2492,VALID,239,VALID,0,
2004-06-03, 01:18:00,VALID,919.142,VALID,0,VALID,95.6259,VALID,0,VALID,19.204,VALID,239,VALID,0.183984,
2004-06-03, 01:19:00,VALID,919.109,VALID,0,VALID,95.6641,VALID,0.0169808,VALID,19.1325,VALID,239,VALID,0.292081,
2004-06-03, 01:20:00,VALID,919.077,VALID,0,VALID,96.1193,VALID,0,VALID,19.094,VALID,239,VALID,0.0336538,
2004-06-03, 01:21:00,VALID,919.05,VALID,0,VALID,96.441,VALID,0,VALID,19.0848,VALID,239,VALID,0,
2004-06-03, 01:22:00,VALID,919.006,VALID,0,VALID,96.4207,VALID,0,VALID,19.0423,VALID,239,VALID,0,
2004-06-03, 01:23:00,VALID,918.978,VALID,0,VALID,96.586,VALID,-0.0169808,VALID,19.0163,VALID,239,VALID,0.0249619,
2004-06-03, 01:24:00,VALID,918.946,VALID,0,VALID,96.7717,VALID,-0.0509425,VALID,19.014,VALID,238,VALID,0.354106,
2004-06-03, 01:25:00,VALID,918.939,VALID,0,VALID,96.853,VALID,0,VALID,19.0041,VALID,238,VALID,0.197716,
2004-06-03, 01:26:00,VALID,918.933,VALID,0,VALID,96.9408,VALID,0,VALID,18.9909,VALID,238,VALID,0.0833333,
2004-06-03, 01:27:00,VALID,918.933,VALID,0,VALID,97.1061,VALID,0,VALID,19.0006,VALID,238,VALID,0,
2004-06-03, 01:28:00,VALID,918.925,VALID,0,VALID,97.1099,VALID,0,VALID,19.0103,VALID,238,VALID,0,
2004-06-03, 01:29:00,VALID,918.899,VALID,0,VALID,96.8543,VALID,0,VALID,18.9912,VALID,238,VALID,0.046317,
2004-06-03, 01:30:00,VALID,918.864,VALID,0,VALID,96.9192,VALID,0,VALID,18.972,VALID,238,VALID,0.363467,
2004-06-03, 01:31:00,VALID,918.826,VALID,0,VALID,96.9598,VALID,0,VALID,18.9162,VALID,162,VALID,0.751302,
2004-06-03, 01:32:00,VALID,918.786,VALID,0,VALID,97.4532,VALID,0,VALID,18.9197,VALID,70,VALID,0.669829,
2004-06-03, 01:33:00,VALID,918.782,VALID,0,VALID,97.3045,VALID,0,VALID,18.9584,VALID,70,VALID,0.56267,
2004-06-03, 01:34:00,VALID,918.773,VALID,0,VALID,97.0133,VALID,0,VALID,18.9713,VALID,69,VALID,0.217262,
2004-06-03, 01:35:00,VALID,918.755,VALID,0,VALID,96.7704,VALID,0,VALID,18.9683,VALID,69,VALID,0,
2004-06-03, 01:36:00,VALID,918.74,VALID,0,VALID,96.5644,VALID,0.101885,VALID,18.9487,VALID,69,VALID,0,
2004-06-03, 01:37:00,VALID,918.717,VALID,0,VALID,96.4728,VALID,0.0509425,VALID,18.9035,VALID,69,VALID,0,
2004-06-03, 01:38:00,VALID,918.715,VALID,0,VALID,96.5224,VALID,0.0679233,VALID,18.8583,VALID,69,VALID,0,
2004-06-03, 01:39:00,VALID,918.703,VALID,0,VALID,96.6419,VALID,0.0849042,VALID,18.8261,VALID,69,VALID,0.0222222,
2004-06-03, 01:40:00,VALID,918.717,VALID,0,VALID,96.7093,VALID,0.0169808,VALID,18.8037,VALID,69,VALID,0,
2004-06-03, 01:41:00,VALID,918.711,VALID,0,VALID,96.7093,VALID,0.0169808,VALID,18.7615,VALID,69,VALID,0,
2004-06-03, 01:42:00,VALID,918.714,VALID,0,VALID,96.5211,VALID,0,VALID,18.7101,VALID,69,VALID,0,
2004-06-03, 01:43:00,VALID,918.684,VALID,0,VALID,96.6,VALID,0,VALID,18.6324,VALID,69,VALID,0.252362,
2004-06-03, 01:44:00,VALID,918.652,VALID,0,VALID,96.7678,VALID,0,VALID,18.5782,VALID,69,VALID,0.242932,
2004-06-03, 01:45:00,VALID,918.634,VALID,0,VALID,96.867,VALID,0.0509425,VALID,18.5166,VALID,69,VALID,0.340892,
2004-06-03, 01:46:00,VALID,918.585,VALID,0,VALID,97.0501,VALID,0.0169808,VALID,18.465,VALID,69,VALID,0.498402,
2004-06-03, 01:47:00,VALID,918.543,VALID,0,VALID,97.279,VALID,0.0169808,VALID,18.4429,VALID,68,VALID,0.489347,
2004-06-03, 01:48:00,VALID,918.502,VALID,0,VALID,97.4431,VALID,0,VALID,18.4103,VALID,66,VALID,0.625558,
2004-06-03, 01:49:00,VALID,918.475,VALID,0,VALID,97.5728,VALID,0,VALID,18.4067,VALID,66,VALID,0.735102,
2004-06-03, 01:50:00,VALID,918.451,VALID,0,VALID,97.5028,VALID,-0.0849042,VALID,18.418,VALID,66,VALID,0.705078,
2004-06-03, 01:51:00,VALID,918.435,VALID,0,VALID,97.3935,VALID,-0.101885,VALID,18.4311,VALID,65,VALID,0.871189,
2004-06-03, 01:52:00,VALID,918.44,VALID,0,VALID,97.2269,VALID,-0.0849042,VALID,18.4505,VALID,62,VALID,0.773793,
2004-06-03, 01:53:00,VALID,918.453,VALID,0,VALID,96.9014,VALID,-0.101885,VALID,18.444,VALID,61,VALID,0.640625,
2004-06-03, 01:54:00,VALID,918.464,VALID,0,VALID,96.8568,VALID,-0.101885,VALID,18.4113,VALID,61,VALID,0.480378,
2004-06-03, 01:55:00,VALID,918.457,VALID,0,VALID,97.0044,VALID,-0.101885,VALID,18.4219,VALID,61,VALID,0.374826,
2004-06-03, 01:56:00,VALID,918.457,VALID,0,VALID,97.0616,VALID,-0.0849042,VALID,18.4051,VALID,61,VALID,0.441692,
2004-06-03, 01:57:00,VALID,918.449,VALID,0,VALID,97.0705,VALID,-0.0849042,VALID,18.4083,VALID,61,VALID,0.317708,
2004-06-03, 01:58:00,VALID,918.427,VALID,0,VALID,96.9128,VALID,-0.0679233,VALID,18.4214,VALID,61,VALID,0.0870808,
2004-06-03, 01:59:00,VALID,918.406,VALID,0,VALID,96.7945,VALID,-0.101885,VALID,18.4057,VALID,61,VALID,0.0120739,
2004-06-03, 02:00:00,VALID,918.378,VALID,0,VALID,96.8657,VALID,-0.101885,VALID,18.4025,VALID,61,VALID,0,
2004-06-03, 02:01:00,VALID,918.346,VALID,0,VALID,96.8696,VALID,-0.0849042,VALID,18.3993,VALID,61,VALID,0.232031,
2004-06-03, 02:02:00,VALID,918.32,VALID,0,VALID,96.9319,VALID,-0.0849042,VALID,18.3995,VALID,61,VALID,0.219494,
2004-06-03, 02:03:00,VALID,918.29,VALID,0,VALID,96.8645,VALID,-0.101885,VALID,18.3827,VALID,61,VALID,0.193788,
2004-06-03, 02:04:00,VALID,918.279,VALID,0,VALID,96.9014,VALID,-0.0679233,VALID,18.3735,VALID,64,VALID,0.332667,
2004-06-03, 02:05:00,VALID,918.282,VALID,0,VALID,96.9827,VALID,-0.0169808,VALID,18.3396,VALID,72,VALID,0.440589,
2004-06-03, 02:06:00,VALID,918.261,VALID,0,VALID,97.0781,VALID,0,VALID,18.3142,VALID,72,VALID,0.409961,
2004-06-03, 02:07:00,VALID,918.251,VALID,0,VALID,97.1671,VALID,0.0169808,VALID,18.278,VALID,72,VALID,0.340625,
2004-06-03, 02:08:00,VALID,918.243,VALID,0,VALID,97.2663,VALID,0.0169808,VALID,18.2623,VALID,72,VALID,0.0761218,
2004-06-03, 02:09:00,VALID,918.213,VALID,0,VALID,97.3045,VALID,0,VALID,18.2294,VALID,72,VALID,0.157522,
2004-06-03, 02:10:00,VALID,918.188,VALID,0,VALID,97.3718,VALID,-0.0169808,VALID,18.2337,VALID,72,VALID,0.332812,
2004-06-03, 02:11:00,VALID,918.173,VALID,0,VALID,97.4634,VALID,0,VALID,18.2171,VALID,72,VALID,0.403646,
2004-06-03, 02:12:00,VALID,918.153,VALID,0,VALID,97.4469,VALID,0,VALID,18.2045,VALID,72,VALID,0.40532,
2004-06-03, 02:13:00,VALID,918.124,VALID,0,VALID,97.6452,VALID,0,VALID,18.1886,VALID,72,VALID,0.453316,
2004-06-03, 02:14:00,VALID,918.102,VALID,0,VALID,97.6427,VALID,0,VALID,18.175,VALID,72,VALID,0.424162,
2004-06-03, 02:15:00,VALID,918.069,VALID,0,VALID,97.2447,VALID,0,VALID,18.1175,VALID,72,VALID,0.177641,
2004-06-03, 02:16:00,VALID,918.043,VALID,0,VALID,97.4456,VALID,-0.0169808,VALID,18.0823,VALID,72,VALID,0.125,
2004-06-03, 02:17:00,VALID,918.018,VALID,0,VALID,97.6262,VALID,0,VALID,18.0627,VALID,72,VALID,0.385938,
2004-06-03, 02:18:00,VALID,918.018,VALID,0,VALID,97.6898,VALID,0,VALID,18.0594,VALID,120,VALID,0.635861,
2004-06-03, 02:19:00,VALID,918.014,VALID,0,VALID,97.8729,VALID,0.0169808,VALID,18.0431,VALID,138,VALID,0.716704,
2004-06-03, 02:20:00,VALID,918.007,VALID,0,VALID,98.0102,VALID,-0.0169808,VALID,18.0339,VALID,153,VALID,0.539971,
2004-06-03, 02:21:00,VALID,918.002,VALID,0,VALID,98.1768,VALID,-0.0169808,VALID,18.0274,VALID,141,VALID,0.689546,
2004-06-03, 02:22:00,VALID,917.991,VALID,0,VALID,98.3624,VALID,0,VALID,18.0405,VALID,140,VALID,0.797991,
2004-06-03, 02:23:00,VALID,917.989,VALID,0,VALID,98.4807,VALID,-0.0339617,VALID,18.0567,VALID,136,VALID,0.688244,
2004-06-03, 02:24:00,VALID,918,VALID,0,VALID,98.4324,VALID,-0.0169808,VALID,18.0698,VALID,133,VALID,0.478237,
2004-06-03, 02:25:00,VALID,918.002,VALID,0,VALID,98.4464,VALID,-0.0169808,VALID,18.0698,VALID,133,VALID,0.567835,
2004-06-03, 02:26:00,VALID,918.034,VALID,0,VALID,98.6066,VALID,0,VALID,18.0756,VALID,133,VALID,0.632465,
2004-06-03, 02:27:00,VALID,918.039,VALID,0,VALID,98.7337,VALID,0,VALID,18.1085,VALID,133,VALID,0.684261,
2004-06-03, 02:28:00,VALID,918.059,VALID,0,VALID,98.8863,VALID,-0.0849042,VALID,18.1175,VALID,133,VALID,0.621449,
2004-06-03, 02:29:00,VALID,918.07,VALID,0,VALID,99.0415,VALID,-0.0169808,VALID,18.1602,VALID,133,VALID,0.48492,
2004-06-03, 02:30:00,VALID,918.062,VALID,0,VALID,99.1635,VALID,-0.0509425,VALID,18.1763,VALID,138,VALID,0.462426,
2004-06-03, 02:31:00,VALID,918.059,VALID,0,VALID,99.1674,VALID,-0.0509425,VALID,18.2123,VALID,138,VALID,0.543924,
2004-06-03, 02:32:00,VALID,918.042,VALID,0,VALID,99.105,VALID,-0.0169808,VALID,18.2084,VALID,139,VALID,0.422238,
2004-06-03, 02:33:00,VALID,918.017,VALID,0,VALID,99.1,VALID,-0.0339617,VALID,18.2123,VALID,139,VALID,0.237805,
2004-06-03, 02:34:00,VALID,918.002,VALID,0,VALID,99.0936,VALID,-0.0509425,VALID,18.2151,VALID,139,VALID,0.0788517,
2004-06-03, 02:35:00,VALID,917.987,VALID,0,VALID,99.1241,VALID,-0.0339617,VALID,18.2245,VALID,139,VALID,0.0154297,
2004-06-03, 02:36:00,VALID,917.974,VALID,0,VALID,99.2373,VALID,-0.0339617,VALID,18.2344,VALID,143,VALID,0.475521,
2004-06-03, 02:37:00,VALID,917.971,VALID,0,VALID,99.3581,VALID,-0.0509425,VALID,18.2764,VALID,160,VALID,0.508194,
2004-06-03, 02:38:00,VALID,917.982,VALID,0,VALID,99.4153,VALID,-0.0169808,VALID,18.2861,VALID,165,VALID,0.415015,
2004-06-03, 02:39:00,VALID,918.003,VALID,0,VALID,99.4268,VALID,-0.0509425,VALID,18.2928,VALID,165,VALID,0.307106,
2004-06-03, 02:40:00,VALID,918.024,VALID,0,VALID,99.3924,VALID,-0.0339617,VALID,18.2863,VALID,165,VALID,0.0181686,
2004-06-03, 02:41:00,VALID,918.037,VALID,0,VALID,99.3174,VALID,-0.0169808,VALID,18.2831,VALID,165,VALID,0,
2004-06-03, 02:42:00,VALID,918.042,VALID,0,VALID,99.2564,VALID,-0.0339617,VALID,18.2702,VALID,165,VALID,0,
2004-06-03, 02:43:00,VALID,918.054,VALID,0,VALID,99.2805,VALID,-0.0169808,VALID,18.2536,VALID,165,VALID,0,
2004-06-03, 02:44:00,VALID,918.065,VALID,0,VALID,99.3556,VALID,-0.0849042,VALID,18.2736,VALID,165,VALID,0,
2004-06-03, 02:45:00,VALID,918.07,VALID,0,VALID,98.9219,VALID,-0.0849042,VALID,18.2086,VALID,165,VALID,0,
2004-06-03, 02:46:00,VALID,918.087,VALID,0,VALID,98.4565,VALID,-0.0339617,VALID,18.0991,VALID,165,VALID,0,
2004-06-03, 02:47:00,VALID,918.087,VALID,0,VALID,98.3993,VALID,-0.0339617,VALID,18.0281,VALID,165,VALID,0,
2004-06-03, 02:48:00,VALID,918.084,VALID,0,VALID,98.5544,VALID,-0.0339617,VALID,18.0087,VALID,165,VALID,0,
2004-06-03, 02:49:00,VALID,918.086,VALID,0,VALID,98.7922,VALID,-0.0509425,VALID,18.0154,VALID,165,VALID,0,
2004-06-03, 02:50:00,VALID,918.07,VALID,0,VALID,98.8876,VALID,0,VALID,18.005,VALID,165,VALID,0,
2004-06-03, 02:51:00,VALID,918.065,VALID,0,VALID,98.5939,VALID,-0.0339617,VALID,17.9474,VALID,165,VALID,0,
2004-06-03, 02:52:00,VALID,918.05,VALID,0,VALID,98.7515,VALID,-0.0849042,VALID,17.9345,VALID,165,VALID,0,
2004-06-03, 02:53:00,VALID,918.034,VALID,0,VALID,99.3416,VALID,-0.0169808,VALID,18.0018,VALID,165,VALID,0,
2004-06-03, 02:54:00,VALID,918.034,VALID,0,VALID,99.7065,VALID,-0.0509425,VALID,18.0989,VALID,165,VALID,0,
2004-06-03, 02:55:00,VALID,918.036,VALID,0,VALID,99.8375,VALID,-0.0509425,VALID,18.1766,VALID,165,VALID,0,
2004-06-03, 02:56:00,VALID,918.053,VALID,0,VALID,99.8108,VALID,0,VALID,18.2381,VALID,165,VALID,0,
2004-06-03, 02:57:00,VALID,918.063,VALID,0,VALID,99.5933,VALID,-0.0339617,VALID,18.2506,VALID,165,VALID,0,
2004-06-03, 02:58:00,VALID,918.087,VALID,0,VALID,99.2678,VALID,-0.0509425,VALID,18.2639,VALID,165,VALID,0.0736607,
2004-06-03, 02:59:00,VALID,918.091,VALID,0,VALID,99.03,VALID,-0.0169808,VALID,18.2506,VALID,165,VALID,0,
2004-06-03, 03:00:00,VALID,918.074,VALID,0,VALID,98.8965,VALID,-0.0169808,VALID,18.2538,VALID,165,VALID,0,
2004-06-03, 03:01:00,VALID,918.08,VALID,0,VALID,98.8037,VALID,-0.0679233,VALID,18.2573,VALID,165,VALID,0,
2004-06-03, 03:02:00,VALID,918.067,VALID,0,VALID,98.7337,VALID,-0.0169808,VALID,18.2667,VALID,165,VALID,0,
2004-06-03, 03:03:00,VALID,918.062,VALID,0,VALID,98.7604,VALID,-0.0509425,VALID,18.2994,VALID,165,VALID,0,
2004-06-03, 03:04:00,VALID,918.041,VALID,0,VALID,98.6015,VALID,-0.0339617,VALID,18.296,VALID,165,VALID,0.00486111,
2004-06-03, 03:05:00,VALID,918.019,VALID,0,VALID,98.3968,VALID,0,VALID,18.2861,VALID,165,VALID,0.00273437,
2004-06-03, 03:06:00,VALID,918.004,VALID,0,VALID,98.4349,VALID,-0.0679233,VALID,18.2925,VALID,165,VALID,0,
2004-06-03, 03:07:00,VALID,917.984,VALID,0,VALID,98.7274,VALID,-0.0169808,VALID,18.3181,VALID,165,VALID,0,
2004-06-03, 03:08:00,VALID,917.982,VALID,0,VALID,99.03,VALID,-0.0169808,VALID,18.3926,VALID,165,VALID,0,
2004-06-03, 03:09:00,VALID,917.984,VALID,0,VALID,98.9588,VALID,-0.0679233,VALID,18.441,VALID,165,VALID,0,
2004-06-03, 03:10:00,VALID,917.998,VALID,0,VALID,98.6714,VALID,0,VALID,18.4768,VALID,165,VALID,0.0408794,
2004-06-03, 03:11:00,VALID,918.032,VALID,0,VALID,98.2111,VALID,-0.0679233,VALID,18.4542,VALID,165,VALID,0,
2004-06-03, 03:12:00,VALID,918.053,VALID,0,VALID,97.9682,VALID,0,VALID,18.421,VALID,165,VALID,0,
2004-06-03, 03:13:00,VALID,918.072,VALID,0,VALID,98.0916,VALID,-0.0169808,VALID,18.4408,VALID,165,VALID,0,
2004-06-03, 03:14:00,VALID,918.081,VALID,0,VALID,97.9949,VALID,-0.0339617,VALID,18.4542,VALID,164,VALID,0.0116279,
2004-06-03, 03:15:00,VALID,918.09,VALID,0,VALID,97.9275,VALID,-0.0169808,VALID,18.4311,VALID,92,VALID,0.452943,
2004-06-03, 03:16:00,VALID,918.092,VALID,0,VALID,97.8907,VALID,-0.0339617,VALID,18.4217,VALID,58,VALID,0.672053,
2004-06-03, 03:17:00,VALID,918.109,VALID,0,VALID,97.897,VALID,-0.0679233,VALID,18.412,VALID,57,VALID,0.452592,
2004-06-03, 03:18:00,VALID,918.107,VALID,0,VALID,98.0572,VALID,-0.0169808,VALID,18.4127,VALID,57,VALID,0.31064,
2004-06-03, 03:19:00,VALID,918.1,VALID,0,VALID,98.3688,VALID,-0.0169808,VALID,18.4309,VALID,57,VALID,0.136265,
2004-06-03, 03:20:00,VALID,918.1,VALID,0,VALID,98.5328,VALID,0,VALID,18.4569,VALID,57,VALID,0,
2004-06-03, 03:21:00,VALID,918.09,VALID,0,VALID,98.5786,VALID,0,VALID,18.4959,VALID,57,VALID,0,
2004-06-03, 03:22:00,VALID,918.085,VALID,0,VALID,98.5125,VALID,0,VALID,18.5044,VALID,57,VALID,0,
2004-06-03, 03:23:00,VALID,918.078,VALID,0,VALID,98.4286,VALID,0,VALID,18.5307,VALID,57,VALID,0.210751,
2004-06-03, 03:24:00,VALID,918.078,VALID,0,VALID,98.323,VALID,-0.0339617,VALID,18.557,VALID,57,VALID,0.260861,
2004-06-03, 03:25:00,VALID,918.056,VALID,0,VALID,98.2607,VALID,0,VALID,18.5828,VALID,57,VALID,0.392805,
2004-06-03, 03:26:00,VALID,918.055,VALID,0,VALID,98.1526,VALID,0,VALID,18.6151,VALID,57,VALID,0.46131,
2004-06-03, 03:27:00,VALID,918.061,VALID,0,VALID,97.9949,VALID,0,VALID,18.6179,VALID,57,VALID,0.191778,
2004-06-03, 03:28:00,VALID,918.062,VALID,0,VALID,97.9288,VALID,-0.0169808,VALID,18.6342,VALID,57,VALID,0.141533,
2004-06-03, 03:29:00,VALID,918.046,VALID,0,VALID,97.8411,VALID,-0.0169808,VALID,18.6439,VALID,57,VALID,0.299219,
2004-06-03, 03:30:00,VALID,918.031,VALID,0,VALID,97.7165,VALID,-0.0169808,VALID,18.6442,VALID,57,VALID,0.405506,
2004-06-03, 03:31:00,VALID,918.021,VALID,0,VALID,97.6389,VALID,-0.0169808,VALID,18.6571,VALID,57,VALID,0.459896,
2004-06-03, 03:32:00,VALID,918.015,VALID,0,VALID,97.4609,VALID,0,VALID,18.6834,VALID,57,VALID,0.538889,
2004-06-03, 03:33:00,VALID,918.024,VALID,0,VALID,97.2968,VALID,0,VALID,18.702,VALID,57,VALID,0.361374,
2004-06-03, 03:34:00,VALID,918.035,VALID,0,VALID,97.0896,VALID,-0.0169808,VALID,18.7182,VALID,57,VALID,0.291243,
2004-06-03, 03:35:00,VALID,918.025,VALID,0,VALID,97.0629,VALID,-0.0169808,VALID,18.7117,VALID,57,VALID,0.259233,
2004-06-03, 03:36:00,VALID,918.02,VALID,0,VALID,97.0171,VALID,0,VALID,18.7182,VALID,57,VALID,0.0853365,
2004-06-03, 03:37:00,VALID,918.031,VALID,0,VALID,96.9853,VALID,0.0169808,VALID,18.7246,VALID,57,VALID,0.00223214,
2004-06-03, 03:38:00,VALID,918.029,VALID,0,VALID,96.9319,VALID,0,VALID,18.7179,VALID,57,VALID,0,